Weather History for Brooksville, FL

Change the Weather History Date:

Wednesday, November 21, 2012

  Actual Average Record
Temperature  
Mean Temperature 60 °F -  
Max Temperature 75 °F 74 °F 82 °F (1997)
Min Temperature 46 °F 49 °F 35 °F (2000)
Degree Days  
Heating Degree Days 4    
Growing Degree Days 10 (Base 50)    
Moisture  
Dew Point 49 °F    
Average Humidity 89    
Maximum Humidity 100    
Minimum Humidity 37    
Precipitation  
Precipitation 0.00 in - - ()
Sea Level Pressure  
Sea Level Pressure 30.07 in    
Wind  
Wind Speed 1 mph (North)    
Max Wind Speed 12 mph    
Max Gust Speed 18 mph    
Visibility 4 miles    
Events Fog    
Averages and records for this station are not official NWS values.
T = Trace of Precipitation, MM = Missing Value Source: NWS Daily Summary

Daily Weather History Graph

Daily Weather History Graph

Search for Another Location

Airport:

Trip Planner

Search our weather history database for the weather conditions in past years. The results will help you decide how hot, cold, wet, or windy it might be!

Date:

Astronomy

Nov. 21, 2012 Rise Set
Actual Time 6:57 AM EST 5:34 PM EST
Civil Twilight 6:32 AM EST 5:59 PM EST
Nautical Twilight 6:03 AM EST 6:28 PM EST
Astronomical Twilight 5:35 AM EST 6:56 PM EST
Moon 1:22 PM EST (11/21) 12:45 AM EST (11/21)
Length of Visible Light 11h 27m
Length of Day
10h 36m
First Quarter, 61% of the Moon is Illuminated
Nov 21
First Quarter
Nov 28
Full
Dec 6
Last Quarter
Dec 13
New
Dec 20
First Quarter

Hourly Weather History & Observations

Time (EST) Temp. Dew Point Humidity Pressure Visibility Wind Dir Wind Speed Gust Speed Precip Events Conditions
12:13 AM 51.8 °F 51.8 °F 100% 30.07 in 1.2 mi Calm Calm - N/A   Scattered Clouds
12:16 AM 51.8 °F 51.8 °F 100% 30.06 in 3.0 mi Calm Calm - N/A   Partly Cloudy
12:21 AM 50.0 °F 50.0 °F 100% 30.07 in 1.5 mi Calm Calm - N/A   Partly Cloudy
12:23 AM 50.0 °F 50.0 °F 100% 30.06 in 0.8 mi Calm Calm - N/A   Mist
12:32 AM 48.2 °F 48.2 °F 100% 30.07 in 0.2 mi Calm Calm - N/A Fog Fog
12:53 AM 51.1 °F 50.0 °F 96% 30.06 in 1.0 mi Calm Calm - N/A   Partly Cloudy
1:07 AM 48.2 °F 48.2 °F 100% 30.06 in 0.5 mi Calm Calm - N/A Fog Fog
1:53 AM 48.9 °F 48.9 °F 100% 30.05 in 0.2 mi Calm Calm - N/A Fog Fog
2:02 AM 48.2 °F 48.2 °F 100% 30.05 in 0.2 mi Calm Calm - N/A Fog Fog
2:42 AM 48.2 °F 48.2 °F 100% 30.05 in 1.0 mi Calm Calm - N/A   Scattered Clouds
2:45 AM 48.2 °F 48.2 °F 100% 30.05 in 3.0 mi Calm Calm - N/A   Partly Cloudy
2:53 AM 48.0 °F 48.0 °F 100% 30.05 in 3.0 mi Calm Calm - N/A   Clear
2:55 AM 48.2 °F 46.4 °F 93% 30.05 in 1.8 mi Calm Calm - N/A   Clear
2:59 AM 48.2 °F 46.4 °F 93% 30.05 in 0.8 mi Calm Calm - N/A   Clear
3:17 AM 48.2 °F 46.4 °F 93% 30.06 in 2.0 mi NNW 4.6 mph - N/A   Clear
3:24 AM 48.2 °F 48.2 °F 100% 30.05 in 10.0 mi NNW 3.5 mph - N/A   Clear
3:53 AM 51.1 °F 50.0 °F 96% 30.06 in 10.0 mi NNW 3.5 mph - N/A   Clear
4:53 AM 48.9 °F 48.0 °F 97% 30.06 in 5.0 mi Calm Calm - N/A   Partly Cloudy
4:57 AM 48.2 °F 48.2 °F 100% 30.06 in 1.8 mi Calm Calm - N/A   Partly Cloudy
5:00 AM 48.2 °F 48.2 °F 100% 30.06 in 0.8 mi Calm Calm - N/A   Partly Cloudy
5:13 AM 48.2 °F 46.4 °F 93% 30.07 in 1.8 mi Calm Calm - N/A   Clear
5:15 AM 48.2 °F 46.4 °F 93% 30.07 in 3.0 mi Calm Calm - N/A   Clear
5:34 AM 48.2 °F 48.2 °F 100% 30.06 in 1.8 mi Calm Calm - N/A   Clear
5:41 AM 48.2 °F 48.2 °F 100% 30.07 in 1.0 mi Calm Calm - N/A   Clear
5:53 AM 48.0 °F 48.0 °F 100% 30.06 in 0.5 mi Calm Calm - N/A Fog Fog
6:51 AM 48.2 °F 48.2 °F 100% 30.08 in 1.8 mi Calm Calm - N/A   Mostly Cloudy
6:53 AM 48.0 °F 48.0 °F 100% 30.08 in 1.5 mi Calm Calm - N/A   Mostly Cloudy
7:09 AM 46.4 °F 46.4 °F 100% 30.09 in 0.5 mi Calm Calm - N/A Fog Fog
7:16 AM 48.2 °F 46.4 °F 93% 30.09 in 1.8 mi Calm Calm - N/A   Clear
7:18 AM 48.2 °F 48.2 °F 100% 30.09 in 3.0 mi Calm Calm - N/A   Clear
7:53 AM 51.1 °F 51.1 °F 100% 30.09 in 10.0 mi Calm Calm - N/A   Clear
8:53 AM 60.1 °F 54.0 °F 80% 30.11 in 10.0 mi North 4.6 mph - N/A   Clear
9:53 AM 66.0 °F 53.1 °F 63% 30.12 in 10.0 mi North 9.2 mph - N/A   Clear
11:53 AM 73.0 °F 48.0 °F 41% 30.09 in 10.0 mi NNE 10.4 mph - N/A   Clear
12:53 PM 73.9 °F 48.0 °F 40% 30.06 in 10.0 mi NE 11.5 mph - N/A   Clear
1:53 PM 73.9 °F 46.9 °F 38% 30.04 in 9.0 mi NNE 8.1 mph - N/A   Clear
2:53 PM 75.0 °F 46.9 °F 37% 30.03 in 10.0 mi NNE 11.5 mph 18.4 mph N/A   Clear
3:53 PM 73.0 °F 51.1 °F 46% 30.03 in 10.0 mi NW 11.5 mph - N/A   Clear
4:53 PM 68.0 °F 52.0 °F 56% 30.04 in 10.0 mi NW 10.4 mph - N/A   Clear
5:53 PM 64.0 °F 52.0 °F 65% 30.05 in 10.0 mi NW 6.9 mph - N/A   Clear
6:53 PM 61.0 °F 53.1 °F 75% 30.06 in 10.0 mi NW 3.5 mph - N/A   Clear
7:53 PM 55.0 °F 52.0 °F 89% 30.08 in 10.0 mi Calm Calm - N/A   Clear
8:53 PM 54.0 °F 52.0 °F 93% 30.10 in 10.0 mi North 3.5 mph - N/A   Clear
9:53 PM 54.0 °F 52.0 °F 93% 30.12 in 10.0 mi NNE 3.5 mph - N/A   Clear
10:40 PM 50.0 °F 48.2 °F 94% 30.13 in 1.5 mi Calm Calm - N/A   Clear
10:48 PM 48.2 °F 48.2 °F 100% 30.13 in 0.5 mi Calm Calm - N/A Fog Fog
10:53 PM 46.9 °F 46.9 °F 100% 30.13 in 0.2 mi Calm Calm - N/A Fog Fog
11:19 PM 48.2 °F 46.4 °F 93% 30.13 in 1.0 mi Calm Calm - N/A   Mist
11:24 PM 48.2 °F 46.4 °F 93% 30.13 in 0.8 mi Calm Calm - N/A   Mist
11:53 PM 46.0 °F 46.0 °F 100% 30.12 in 0.2 mi Calm Calm - N/A Fog Fog